| time (UTC) | temp F | wind direction | speed knots | gust knots | rain 1hr in | rain 24hr in | rain mn in | humidity % | barometer mb |
| 20260902013006 | 78 | 294 | 0.0 | 0.9 | 0.00 | 0.00 | 0.00 | 66 | 1012.5 |
| 20260902011505 | 79 | 294 | 0.0 | 0.9 | 0.00 | 0.00 | 0.00 | 67 | 1012.4 |
| 20260902010010 | 79 | 294 | 0.0 | 0.9 | 0.00 | 0.00 | 0.00 | 66 | 1012.2 |
| 20260902004515 | 80 | 294 | 0.0 | 0.9 | 0.00 | 0.00 | 0.00 | 65 | 1012.2 |
| 20260902003004 | 81 | 294 | 0.0 | 2.6 | 0.00 | 0.00 | 0.00 | 64 | 1012.2 |
| 20260902001503 | 81 | 294 | 0.0 | 3.5 | 0.00 | 0.00 | 0.00 | 62 | 1012.3 |
| 20260902000006 | 82 | 257 | 0.9 | 2.6 | 0.00 | 0.00 | 0.00 | 62 | 1012.5 |
| 20260901234502 | 82 | 255 | 0.9 | 1.7 | 0.00 | 0.00 | 0.00 | 61 | 1012.6 |
| 20260901233001 | 82 | 254 | 0.9 | 2.6 | 0.00 | 0.00 | 0.00 | 60 | 1012.6 |
| 20260901231501 | 83 | 254 | 0.0 | 0.9 | 0.00 | 0.00 | 0.00 | 58 | 1012.6 |
| 20260901230100 | 83 | 254 | 0.9 | 2.6 | 0.00 | 0.00 | 0.00 | 57 | 1012.6 |
| 20260901224601 | 83 | 286 | 0.0 | 2.6 | 0.00 | 0.00 | 0.00 | 56 | 1012.6 |
| 20260901223100 | 84 | 288 | 0.9 | 4.3 | 0.00 | 0.00 | 0.00 | 55 | 1012.6 |
| 20260901221559 | 85 | 217 | 0.9 | 3.5 | 0.00 | 0.00 | 0.00 | 52 | 1012.6 |
| 20260901214558 | 83 | 212 | 1.7 | 4.3 | 0.00 | 0.00 | 0.00 | 55 | 1012.5 |
| 20260901213058 | 83 | 159 | 2.6 | 6.1 | 0.00 | 0.00 | 0.00 | 55 | 1012.5 |
| 20260901211558 | 84 | 232 | 2.6 | 5.2 | 0.00 | 0.00 | 0.00 | 56 | 1012.5 |
| 20260901210056 | 83 | 173 | 1.7 | 4.3 | 0.00 | 0.00 | 0.00 | 56 | 1012.3 |
| 20260901204556 | 84 | 178 | 1.7 | 3.5 | 0.00 | 0.00 | 0.00 | 52 | 1012.4 |
| 20260901203055 | 86 | 175 | 2.6 | 6.1 | 0.00 | 0.00 | 0.00 | 48 | 1012.7 |
| 20260901201553 | 87 | 200 | 2.6 | 4.3 | 0.00 | 0.00 | 0.00 | 48 | 1012.9 |
| 20260901200106 | 88 | 166 | 2.6 | 5.2 | 0.00 | 0.00 | 0.00 | 45 | 1012.7 |
| 20260901194601 | 86 | 278 | 0.9 | 5.2 | 0.00 | 0.00 | 0.00 | 47 | 1012.9 |
| 20260901193101 | 86 | 244 | 0.0 | 4.3 | 0.00 | 0.00 | 0.00 | 47 | 1012.8 |
| 20260901191548 | 87 | 236 | 0.0 | 7.8 | 0.00 | 0.00 | 0.00 | 45 | 1013.1 |
| 20260901190053 | 88 | 261 | 0.9 | 5.2 | 0.00 | 0.00 | 0.00 | 46 | 1013.1 |
| 20260901184551 | 87 | 248 | 0.9 | 5.2 | 0.00 | 0.00 | 0.00 | 45 | 1013.1 |
| 20260901183043 | 86 | 196 | 0.9 | 4.3 | 0.00 | 0.00 | 0.00 | 45 | 1013.0 |
| 20260901181542 | 88 | 217 | 0.9 | 3.5 | 0.00 | 0.00 | 0.00 | 43 | 1013.2 |
| 20260901180036 | 86 | 266 | 0.9 | 4.3 | 0.00 | 0.00 | 0.00 | 47 | 1013.5 |
| 20260901174539 | 86 | 309 | 1.7 | 4.3 | 0.00 | 0.00 | 0.00 | 47 | 1013.7 |
| 20260901173034 | 85 | 266 | 1.7 | 5.2 | 0.00 | 0.00 | 0.00 | 50 | 1013.8 |
| 20260901171529 | 86 | 319 | 0.9 | 5.2 | 0.00 | 0.00 | 0.00 | 47 | 1013.9 |
| 20260901170025 | 86 | 5 | 1.7 | 3.5 | 0.00 | 0.00 | 0.00 | 51 | 1013.9 |
| 20260901164522 | 86 | 302 | 0.9 | 2.6 | 0.00 | 0.00 | 0.00 | 50 | 1014.0 |
| 20260901163019 | 84 | 231 | 0.9 | 4.3 | 0.00 | 0.00 | 0.00 | 55 | 1013.9 |
| 20260901161518 | 83 | 311 | 0.0 | 2.6 | 0.00 | 0.00 | 0.00 | 59 | 1014.0 |
| 20260901160014 | 81 | 312 | 1.7 | 4.3 | 0.00 | 0.00 | 0.00 | 62 | 1013.7 |
| 20260901154508 | 80 | 321 | 1.7 | 4.3 | 0.00 | 0.00 | 0.00 | 62 | 1013.9 |
| 20260901153006 | 78 | 258 | 0.0 | 2.6 | 0.00 | 0.00 | 0.00 | 65 | 1013.8 |
| 20260901151502 | 77 | 268 | 1.7 | 3.5 | 0.00 | 0.00 | 0.00 | 65 | 1014.0 |
| 20260901150100 | 76 | 229 | 0.0 | 2.6 | 0.00 | 0.00 | 0.00 | 67 | 1014.0 |
| 20260901144553 | 75 | 227 | 0.9 | 4.3 | 0.00 | 0.00 | 0.00 | 69 | 1014.2 |
| 20260901143107 | 74 | 192 | 0.9 | 3.5 | 0.00 | 0.00 | 0.00 | 73 | 1014.2 |
| 20260901141546 | 72 | 197 | 0.9 | 3.5 | 0.00 | 0.00 | 0.00 | 76 | 1014.3 |
| 20260901140043 | 71 | 196 | 0.9 | 3.5 | 0.00 | 0.00 | 0.00 | 80 | 1014.3 |
| 20260901134538 | 68 | 176 | 1.7 | 3.5 | 0.00 | 0.00 | 0.00 | 83 | 1014.3 |
| 20260901133035 | 67 | 171 | 1.7 | 5.2 | 0.00 | 0.00 | 0.00 | 85 | 1014.5 |
| 20260901131535 | 68 | 233 | 0.9 | 2.6 | 0.00 | 0.00 | 0.00 | 86 | 1014.4 |
| 20260901130033 | 67 | 279 | 0.0 | 1.7 | 0.00 | 0.00 | 0.00 | 87 | 1014.1 |
| 20260901124529 | 66 | 279 | 0.0 | 2.6 | 0.00 | 0.00 | 0.00 | 89 | 1014.1 |
| 20260901123033 | 65 | 279 | 0.0 | 0.9 | 0.00 | 0.00 | 0.00 | 89 | 1014.1 |
| 20260901121528 | 65 | 279 | 0.0 | 1.7 | 0.00 | 0.00 | 0.00 | 90 | 1014.0 |
| 20260901120020 | 65 | 284 | 0.0 | 2.6 | 0.00 | 0.00 | 0.00 | 90 | 1013.8 |
| 20260901114517 | 65 | 286 | 0.9 | 2.6 | 0.00 | 0.00 | 0.00 | 90 | 1013.6 |
| 20260901113018 | 65 | 295 | 0.9 | 4.3 | 0.00 | 0.00 | 0.00 | 90 | 1013.4 |
| 20260901111517 | 65 | 279 | 1.7 | 3.5 | 0.00 | 0.00 | 0.00 | 90 | 1013.1 |
| 20260901110028 | 65 | 211 | 0.0 | 1.7 | 0.00 | 0.00 | 0.00 | 89 | 1013.1 |
| 20260901104513 | 65 | 211 | 0.0 | 3.5 | 0.00 | 0.00 | 0.00 | 90 | 1012.9 |
| 20260901103018 | 65 | 213 | 0.9 | 1.7 | 0.00 | 0.00 | 0.00 | 90 | 1012.8 |
| 20260901101523 | 65 | 213 | 0.0 | 1.7 | 0.00 | 0.00 | 0.00 | 90 | 1012.7 |
| 20260901100011 | 65 | 213 | 0.9 | 2.6 | 0.00 | 0.00 | 0.00 | 90 | 1012.7 |
| 20260901094510 | 66 | 215 | 0.9 | 2.6 | 0.00 | 0.00 | 0.00 | 90 | 1012.8 |
| 20260901093009 | 66 | 215 | 0.0 | 2.6 | 0.00 | 0.00 | 0.00 | 90 | 1012.7 |
| 20260901091508 | 66 | 216 | 0.0 | 1.7 | 0.00 | 0.00 | 0.00 | 89 | 1012.6 |
| 20260901090011 | 66 | 216 | 0.9 | 2.6 | 0.00 | 0.00 | 0.00 | 88 | 1012.6 |
| 20260901084504 | 67 | 216 | 0.0 | 1.7 | 0.00 | 0.00 | 0.00 | 88 | 1012.7 |
| 20260901083002 | 67 | 216 | 0.9 | 1.7 | 0.00 | 0.00 | 0.00 | 87 | 1012.6 |
| 20260901081501 | 68 | 216 | 0.0 | 0.9 | 0.00 | 0.00 | 0.00 | 87 | 1012.5 |
| 20260901074603 | 68 | 216 | 0.0 | 0.9 | 0.00 | 0.00 | 0.00 | 87 | 1012.6 |
| 20260901073059 | 68 | 216 | 0.9 | 2.6 | 0.00 | 0.00 | 0.00 | 86 | 1012.6 |
| 20260901071558 | 68 | 241 | 0.0 | 1.7 | 0.00 | 0.00 | 0.00 | 85 | 1012.7 |
| 20260901064555 | 69 | 241 | 0.0 | 1.7 | 0.00 | 0.00 | 0.00 | 84 | 1013.0 |
| 20260901063055 | 69 | 241 | 0.9 | 2.6 | 0.00 | 0.00 | 0.00 | 84 | 1013.1 |
| 20260901061552 | 69 | 242 | 0.9 | 2.6 | 0.00 | 0.00 | 0.00 | 83 | 1013.2 |
| 20260901060050 | 70 | 242 | 0.9 | 3.5 | 0.00 | 0.00 | 0.00 | 82 | 1013.0 |
| 20260901054549 | 70 | 250 | 0.0 | 2.6 | 0.00 | 0.00 | 0.00 | 81 | 1012.9 |
| 20260901053048 | 71 | 251 | 0.9 | 1.7 | 0.00 | 0.00 | 0.00 | 81 | 1012.7 |
| 20260901051546 | 71 | 251 | 0.0 | 0.9 | 0.00 | 0.00 | 0.00 | 80 | 1012.6 |
| 20260901050041 | 72 | 251 | 0.0 | 1.7 | 0.00 | 0.00 | 0.00 | 79 | 1012.4 |
| 20260901044552 | 72 | 251 | 0.0 | 1.7 | 0.00 | 0.00 | 0.00 | 78 | 1012.3 |
| 20260901043039 | 72 | 251 | 0.9 | 2.6 | 0.00 | 0.00 | 0.00 | 78 | 1012.0 |
| 20260901041538 | 72 | 250 | 0.0 | 1.7 | 0.00 | 0.00 | 0.00 | 78 | 1012.0 |
| 20260901040038 | 73 | 250 | 0.9 | 1.7 | 0.00 | 0.00 | 0.00 | 77 | 1012.3 |
| 20260901034536 | 73 | 250 | 0.0 | 1.7 | 0.00 | 0.00 | 0.00 | 76 | 1012.3 |
| 20260901033035 | 74 | 250 | 0.0 | 0.9 | 0.00 | 0.00 | 0.00 | 75 | 1012.4 |
| 20260901031533 | 74 | 250 | 0.9 | 2.6 | 0.00 | 0.00 | 0.00 | 73 | 1012.2 |
| 20260901030042 | 75 | 254 | 0.0 | 1.7 | 0.00 | 0.00 | 0.00 | 72 | 1012.2 |
| 20260901024532 | 76 | 251 | 0.9 | 2.6 | 0.00 | 0.00 | 0.00 | 71 | 1012.0 |
| 20260901023032 | 76 | 249 | 0.9 | 2.6 | 0.00 | 0.00 | 0.00 | 69 | 1012.0 |
| 20260901021529 | 77 | 252 | 0.0 | 2.6 | 0.00 | 0.00 | 0.00 | 68 | 1011.8 |
| 20260901020027 | 77 | 269 | 0.9 | 1.7 | 0.00 | 0.00 | 0.00 | 68 | 1011.9 |
| 20260901014524 | 78 | 269 | 0.0 | 0.9 | 0.00 | 0.00 | 0.00 | 66 | 1011.6 |